Regional Weather Roundup
Issued by NWS Memphis, TN

Home | Current Version | Previous Version | Text Only | Print | Product List | Glossary On
Versions: 1 2 3 4 5 6 7 8 9 10 11 12 13 14 15 16 17 18 19 20 21 22 23 24 25 26 27 28 29 30 31 32 33 34 35 36 37 38 39 40 41 42 43 44 45 46 47 48 49 50
000
ASUS44 KMEG 311010
RWRMEG
MEMPHIS CWA HOURLY WEATHER ROUNDUP
NATIONAL WEATHER SERVICE MEMPHIS TN
500 AM CDT FRI JUL 31 2015

...WEST TENNESSEE...

CITY           SKY/WX    TMP DP  RH WIND       PRES   REMARKS
MEMPHIS INTL   PTCLDY    74  63  68 N5        30.08R
NWS MEMPHIS      N/A     69 N/A N/A MISG        N/A
JACKSON        PTCLDY    66  62  87 N3        30.08S
LEXINGTON      CLEAR     64  64 100 N3        30.07S
DYERSBURG        N/A    N/A N/A N/A MISG        N/A
PARIS          CLEAR     61  61 100 CALM      30.10S


...EASTERN ARKANSAS...

CITY           SKY/WX    TMP DP  RH WIND       PRES   REMARKS
JONESBORO      CLEAR     71  65  81 N5        30.10R
WEST MEMPHIS   CLEAR     68  67  96 NW5       30.08R
BATESVILLE     CLEAR     66  64  94 NW3       30.12S
NEWPORT        CLEAR     68  66  93 N3        30.11S
WALNUT RIDGE   CLEAR     68  63  83 NW3       30.10S
BLYTHEVILLE    CLEAR     67  66  97 N5        30.09R
SEARCY         CLEAR     70  64  81 N3        30.11S
STUTTGART      CLEAR     70  63  78 MISG      30.07F
PINE BLUFF     CLEAR     70  65  84 N7        30.08S
MONTICELLO     CLEAR     70  66  87 NE3       30.06R


...NORTH MISSISSIPPI...

CITY           SKY/WX    TMP DP  RH WIND       PRES   REMARKS
TUPELO         CLEAR     67  62  84 NE8       30.04S
OLIVE BRANCH     N/A     68  66  94 N5        30.08S
TUNICA         CLEAR     68  64  88 N6        30.08S
CLARKSDALE       N/A     68  68 100 N8        30.08R
CORINTH        CLEAR     64  63  94 CALM      30.06R
GREENWOOD      PTCLDY    66  62  87 NE3       30.03F
COLUMBUS       CLEAR     68  64  86 N8        30.01S
STARKVILLE     FAIR      66  63  88 CALM      30.02S
GOLDEN TRIANGL CLEAR     70  61  73 N6        30.00S


...SOUTHEAST MISSOURI...

CITY           SKY/WX    TMP DP  RH WIND       PRES   REMARKS
WEST PLAINS    CLEAR     64  59  83 CALM      30.17S
POPLAR BLUFF   CLEAR     67  63  87 NW5       30.10R
CAPE GIRARDEAU CLEAR     65  64  97 SW5       30.10R


...NORTHWEST ALABAMA...

CITY           SKY/WX    TMP DP  RH WIND       PRES   REMARKS
MUSCLE SHOALS  CLEAR     71  61  70 VRB5      30.06R


...MIDDLE TENNESSEE...

CITY           SKY/WX    TMP DP  RH WIND       PRES   REMARKS
NASHVILLE      CLEAR     69  62  78 CALM      30.08R
CLARKSVILLE    CLEAR     64  63  96 W3        30.08R
COLUMBIA       CLEAR     64  64 100 CALM      30.06S


...WESTERN KENTUCKY...

CITY           SKY/WX    TMP DP  RH WIND       PRES   REMARKS
PADUCAH        CLEAR     66  65  96 SW3       30.08S
FORT CAMPBELL  CLEAR     67  64  87 VRB1      30.08R


...CENTRAL ARKANSAS...

CITY           SKY/WX    TMP DP  RH WIND       PRES   REMARKS
LITTLE ROCK    MOCLDY    74  62  66 N6        30.10R


SKY/WX REPORTED AS FAIR MEANS FEW OR NO CLOUDS BELOW
12 THOUSAND FEET.



USA.gov is the U.S. government's official web portal to all federal, state and local government web resources and services.